Location: Montclair
(37.8322°N, 122.2092°W)
Time: 12:33:54
(UTC+00:00)

H-2A R/B - Pass Details

Date: 08 September 2024
Orbit: 731 x 831 km, 98.2° (Epoch: 11 October)

Event Time Altitude Azimuth Distance (km) Brightness Sun altitude
Rises 13:00:03 0° 3° (N) 3,331 5.5 -9.6°
Reaches altitude 10° 13:02:32 10° 355° (N) 2,409 4.7 -9.1°
Maximum altitude 13:07:22 36° 290° (WNW) 1,283 2.8 -8.2°
Drops below altitude 10° 13:12:15 10° 225° (SW) 2,429 4.1 -7.3°
Sets 13:14:46 0° 217° (SW) 3,362 4.9 -6.8°
